Weather History for KCKC - April, 2013

Change the Weather History Date:

Sunday, April 7, 2013

  Actual Average Record
Temperature  
Mean Temperature 30 °F -  
Max Temperature 35 °F 39 °F 55 °F (2005)
Min Temperature 26 °F 23 °F 5 °F (1997)
Degree Days  
Heating Degree Days 34    
Moisture  
Dew Point 22 °F    
Average Humidity 72    
Maximum Humidity 86    
Minimum Humidity 56    
Precipitation  
Precipitation 0.00 in - - ()
Sea Level Pressure  
Sea Level Pressure 29.79 in    
Wind  
Wind Speed 7 mph (WNW)    
Max Wind Speed 14 mph    
Max Gust Speed 21 mph    
Visibility 10 miles    
Events      
Averages and records for this station are not official NWS values.
T = Trace of Precipitation, MM = Missing Value Source: NWS Daily Summary

Daily Weather History Graph

Daily Weather History Graph

Search for Another Location

Airport or City:

Trip Planner

Search our weather history database for the weather conditions in past years. The results will help you decide how hot, cold, wet, or windy it might be!

Date:

Astronomy

Apr. 07, 2013 Rise Set
Actual Time 6:27 AM CDT 7:40 PM CDT
Civil Twilight 5:55 AM CDT 8:12 PM CDT
Nautical Twilight 5:17 AM CDT 8:50 PM CDT
Astronomical Twilight 4:36 AM CDT 9:32 PM CDT
Moon 4:56 AM CDT (4/7) 5:03 PM CDT (4/7)
Length of Visible Light 14h 16m
Length of Day
13h 13m
Waning Crescent, 8% of the Moon is Illuminated
Apr 7
Waning Crescent
Apr 10
New
Apr 18
First Quarter
Apr 25
Full
May 2
Last Quarter

Hourly Weather History & Observations

Time (CDT) Temp. Windchill Dew Point Humidity Pressure Visibility Wind Dir Wind Speed Gust Speed Precip Events Conditions
12:13 AM 26.6 °F 16.8 °F 23.0 °F 86% 29.60 in 10.0 mi NNW 10.4 mph 18.4 mph N/A   Overcast
12:33 AM 26.6 °F 15.7 °F 23.0 °F 86% 29.61 in 10.0 mi NNW 12.7 mph 17.3 mph N/A   Overcast
12:53 AM 26.6 °F 16.8 °F 23.0 °F 86% 29.61 in 10.0 mi NNW 10.4 mph 18.4 mph N/A   Overcast
1:14 AM 26.6 °F 15.7 °F 21.2 °F 80% 29.61 in 10.0 mi NNW 12.7 mph 17.3 mph N/A   Overcast
1:33 AM 26.6 °F 16.2 °F 21.2 °F 80% 29.62 in 10.0 mi NW 11.5 mph 18.4 mph N/A   Overcast
1:53 AM 26.6 °F 16.2 °F 21.2 °F 80% 29.62 in 10.0 mi NW 11.5 mph 19.6 mph N/A   Overcast
2:14 AM 26.6 °F 18.2 °F 21.2 °F 80% 29.62 in 10.0 mi NNW 8.1 mph 16.1 mph N/A   Overcast
2:34 AM 26.6 °F 15.7 °F 21.2 °F 80% 29.63 in 10.0 mi NNW 12.7 mph 18.4 mph N/A   Overcast
2:53 AM 26.6 °F 16.8 °F 21.2 °F 80% 29.64 in 10.0 mi NNW 10.4 mph 16.1 mph N/A   Overcast
3:13 AM 26.6 °F 16.2 °F 21.2 °F 80% 29.65 in 10.0 mi NW 11.5 mph 20.7 mph N/A   Overcast
3:33 AM 26.6 °F 15.2 °F 23.0 °F 86% 29.65 in 10.0 mi NW 13.8 mph 18.4 mph N/A   Overcast
3:54 AM 26.6 °F 18.2 °F 23.0 °F 86% 29.66 in 10.0 mi NNW 8.1 mph 16.1 mph N/A   Overcast
4:14 AM 26.6 °F 18.2 °F 23.0 °F 86% 29.68 in 10.0 mi NNW 8.1 mph 19.6 mph N/A   Overcast
4:34 AM 26.6 °F 16.8 °F 23.0 °F 86% 29.68 in 10.0 mi NNW 10.4 mph 18.4 mph N/A   Overcast
4:53 AM 26.6 °F 18.2 °F 23.0 °F 86% 29.69 in 10.0 mi NNW 8.1 mph - N/A   Overcast
5:14 AM 26.6 °F 18.2 °F 21.2 °F 80% 29.69 in 10.0 mi NNW 8.1 mph - N/A   Overcast
5:34 AM 26.6 °F 18.2 °F 21.2 °F 80% 29.70 in 10.0 mi NNW 8.1 mph - N/A   Overcast
5:53 AM 26.6 °F 19.1 °F 21.2 °F 80% 29.71 in 10.0 mi NNW 6.9 mph - N/A   Overcast
6:14 AM 26.6 °F 17.5 °F 21.2 °F 80% 29.72 in 10.0 mi NNW 9.2 mph - N/A   Overcast
6:34 AM 26.6 °F 19.1 °F 21.2 °F 80% 29.73 in 10.0 mi NNW 6.9 mph - N/A   Scattered Clouds
6:54 AM 26.6 °F 18.2 °F 21.2 °F 80% 29.75 in 10.0 mi NNW 8.1 mph - N/A   Mostly Cloudy
7:14 AM 26.6 °F 19.1 °F 21.2 °F 80% 29.75 in 10.0 mi NNW 6.9 mph - N/A   Scattered Clouds
7:33 AM 26.6 °F 20.0 °F 21.2 °F 80% 29.77 in 10.0 mi NNW 5.8 mph - N/A   Scattered Clouds
7:53 AM 26.6 °F 18.2 °F 21.2 °F 80% 29.78 in 10.0 mi NNW 8.1 mph - N/A   Mostly Cloudy
8:13 AM 28.4 °F 24.6 °F 21.2 °F 74% 29.79 in 10.0 mi NW 3.5 mph - N/A   Overcast
8:33 AM 28.4 °F 22.2 °F 21.2 °F 74% 29.79 in 10.0 mi North 5.8 mph - N/A   Overcast
8:54 AM 28.4 °F 23.3 °F 21.2 °F 74% 29.79 in 10.0 mi NW 4.6 mph - N/A   Overcast
9:14 AM 30.2 °F 25.4 °F 23.0 °F 75% 29.80 in 10.0 mi NNW 4.6 mph - N/A   Overcast
9:33 AM 30.2 °F 24.3 °F 23.0 °F 75% 29.80 in 10.0 mi NW 5.8 mph - N/A   Overcast
9:54 AM 33.8 °F 29.6 °F 24.8 °F 70% 29.80 in 10.0 mi NNW 4.6 mph - N/A   Mostly Cloudy
10:13 AM 33.8 °F 30.8 °F 23.0 °F 65% 29.81 in 10.0 mi North 3.5 mph - N/A   Scattered Clouds
10:33 AM 35.6 °F - 23.0 °F 60% 29.82 in 10.0 mi Calm Calm - N/A   Mostly Cloudy
10:54 AM 33.8 °F 28.6 °F 21.2 °F 60% 29.83 in 10.0 mi WNW 5.8 mph - N/A   Overcast
11:13 AM 33.8 °F 29.6 °F 21.2 °F 60% 29.84 in 10.0 mi West 4.6 mph - N/A   Overcast
11:34 AM 33.8 °F 28.6 °F 21.2 °F 60% 29.84 in 10.0 mi NW 5.8 mph - N/A   Overcast
11:53 AM 33.8 °F 30.8 °F 21.2 °F 60% 29.84 in 10.0 mi WNW 3.5 mph - N/A   Overcast
12:14 PM 33.8 °F 28.6 °F 21.2 °F 60% 29.86 in 10.0 mi WNW 5.8 mph - N/A   Overcast
12:33 PM 33.8 °F 29.6 °F 23.0 °F 65% 29.86 in 10.0 mi West 4.6 mph - N/A   Overcast
12:53 PM 33.8 °F 30.8 °F 23.0 °F 65% 29.86 in 10.0 mi WSW 3.5 mph - N/A   Overcast
1:14 PM 35.6 °F 30.7 °F 21.2 °F 56% 29.85 in 10.0 mi West 5.8 mph - N/A   Overcast
1:33 PM 35.6 °F 32.8 °F 21.2 °F 56% 29.86 in 10.0 mi SSW 3.5 mph - N/A   Overcast
1:53 PM 35.6 °F 31.7 °F 21.2 °F 56% 29.86 in 10.0 mi West 4.6 mph - N/A   Overcast
2:13 PM 35.6 °F 31.7 °F 24.8 °F 65% 29.87 in 10.0 mi SSE 4.6 mph - N/A   Overcast
2:33 PM 35.6 °F 29.9 °F 26.6 °F 70% 29.86 in 10.0 mi South 6.9 mph - N/A   Overcast
2:54 PM 35.6 °F 31.7 °F 24.8 °F 65% 29.86 in 10.0 mi SSW 4.6 mph - N/A   Overcast
3:13 PM 35.6 °F 29.9 °F 24.8 °F 65% 29.87 in 10.0 mi SSW 6.9 mph - N/A   Overcast
3:34 PM 35.6 °F 29.9 °F 26.6 °F 70% 29.86 in 10.0 mi South 6.9 mph - N/A   Overcast
3:53 PM 33.8 °F 29.6 °F 24.8 °F 70% 29.87 in 10.0 mi SSW 4.6 mph - N/A   Overcast
4:14 PM 33.8 °F - 24.8 °F 70% 29.86 in 10.0 mi Calm Calm - N/A   Overcast
4:33 PM 33.8 °F 27.0 °F 24.8 °F 70% 29.86 in 10.0 mi South 8.1 mph - N/A   Overcast
4:54 PM 33.8 °F 28.6 °F 24.8 °F 70% 29.86 in 10.0 mi SSW 5.8 mph - N/A   Overcast
5:13 PM 33.8 °F 28.6 °F 23.0 °F 65% 29.86 in 10.0 mi SSW 5.8 mph - N/A   Overcast
5:34 PM 33.8 °F 30.8 °F 21.2 °F 60% 29.86 in 10.0 mi South 3.5 mph - N/A   Overcast
5:54 PM 33.8 °F 29.6 °F 21.2 °F 60% 29.86 in 10.0 mi South 4.6 mph - N/A   Overcast
6:14 PM 33.8 °F 29.6 °F 21.2 °F 60% 29.87 in 10.0 mi South 4.6 mph - N/A   Overcast
6:33 PM 32.0 °F 27.5 °F 21.2 °F 64% 29.87 in 10.0 mi South 4.6 mph - N/A   Overcast
6:53 PM 32.0 °F 28.7 °F 21.2 °F 64% 29.87 in 10.0 mi South 3.5 mph - N/A   Overcast
7:13 PM 30.2 °F - 21.2 °F 69% 29.86 in 10.0 mi Calm Calm - N/A   Overcast
7:34 PM 30.2 °F 23.4 °F 21.2 °F 69% 29.86 in 10.0 mi South 6.9 mph - N/A   Overcast
7:53 PM 30.2 °F 25.4 °F 19.4 °F 64% 29.87 in 10.0 mi South 4.6 mph - N/A   Overcast
8:13 PM 30.2 °F 25.4 °F 21.2 °F 69% 29.87 in 10.0 mi SSE 4.6 mph - N/A   Mostly Cloudy
8:34 PM 30.2 °F 26.7 °F 21.2 °F 69% 29.87 in 10.0 mi SSE 3.5 mph - N/A   Overcast
8:53 PM 30.2 °F - 21.2 °F 69% 29.88 in 10.0 mi Calm Calm - N/A   Overcast
9:13 PM 30.2 °F - 21.2 °F 69% 29.87 in 10.0 mi Calm Calm - N/A   Overcast
9:33 PM 28.4 °F - 21.2 °F 74% 29.88 in 10.0 mi Calm Calm - N/A   Overcast
9:54 PM 28.4 °F - 21.2 °F 74% 29.88 in 10.0 mi Calm Calm - N/A   Overcast
10:14 PM 28.4 °F - 21.2 °F 74% 29.88 in 10.0 mi Calm Calm - N/A   Overcast
10:34 PM 28.4 °F - 21.2 °F 74% 29.88 in 10.0 mi Calm Calm - N/A   Overcast
10:54 PM 28.4 °F - 21.2 °F 74% 29.88 in 10.0 mi Calm Calm - N/A   Overcast
11:13 PM 30.2 °F - 19.4 °F 64% 29.88 in 10.0 mi Calm Calm - N/A   Overcast
11:33 PM 28.4 °F - 19.4 °F 69% 29.87 in 10.0 mi Calm Calm - N/A   Overcast
11:54 PM 28.4 °F - 21.2 °F 74% 29.87 in 10.0 mi Calm Calm - N/A   Overcast